Home > Weather > Tiruchirappalli > Past weeks

Flag for India Past Weather in Tiruchirappalli, Tamil Nadu, India — Yesterday and Last 2 Weeks

Now
95 °F

Passing clouds.


Feels Like: 100 °F
Forecast: 78 / 94 °F
Wind: 7 mph from Northwest

Location: Tiruchchirapalli

Current Time: Aug 29, 2016 at 1:04:10 PM

Latest Report: Aug 29, 2016 at 12:30 PM


Visibility: 4 mi

Pressure: 29.68 "Hg

Humidity: 41%

Dew Point: 68 °F

Location of TiruchirappalliLocation

Past Weather in Tiruchirappalli — Graph

°F

Tiruchirappalli Temperature Yesterday

Maximum temperature yesterday: 97 °F (at 2:00 PM)
Minimum temperature yesterday: 79 °F (at 12:00 AM)
Average temperature yesterday: 87 °F

High & Low Weather Summary for the Past Weeks

 TemperatureHumidityPressure
High102 °F (Aug 22, 11:30 PM)94% (Aug 27, 2:30 AM)29.77 "Hg (Aug 27, 2:30 AM)
Low77 °F (Aug 26, 10:30 PM)33% (Aug 17, 4:30 PM)29.56 "Hg (Aug 20, 4:30 PM)
Average88 °F56%29.70 "Hg
* Reported Aug 14 11:30 AM — Aug 29 12:00 PM, Tiruchirappalli, Weather by CustomWeather, © 2016

Note: Actual official high and low records may vary slightly from our data, if they occured in-between our weather recording intervals... More about our weather records

Advertising

Tiruchirappalli Weather History for the Previous 24 Hours

Scroll right to see more
 ConditionsComfort  
Time TempWeatherWind HumidityBarometerVisibility
12:00 PM
Mon, Aug 29
95 °FPassing clouds.7 mph41%29.71 "Hg4 mi
11:30 AM93 °FPassing clouds.7 mph44%29.74 "Hg4 mi
11:00 AM91 °FScattered clouds.8 mph46%29.74 "Hg4 mi
10:30 AM90 °FScattered clouds.8 mph49%29.74 "Hg4 mi
10:00 AM90 °FScattered clouds.8 mph49%29.74 "Hg4 mi
9:30 AM88 °FPartly sunny.8 mph52%29.77 "Hg4 mi
9:00 AM88 °FScattered clouds.8 mph52%29.77 "Hg3 mi
8:30 AM86 °FScattered clouds.8 mph55%29.74 "Hg3 mi
8:00 AM84 °FScattered clouds.12 mph66%29.74 "Hg3 mi
7:30 AM82 °FBroken clouds.9 mph70%29.74 "Hg3 mi
7:00 AM81 °FBroken clouds.9 mph70%29.74 "Hg3 mi
6:30 AM81 °FPartly cloudy.10 mph70%29.71 "Hg3 mi
6:00 AM81 °FPartly cloudy.9 mph70%29.71 "Hg3 mi
5:30 AM81 °FPartly cloudy.6 mph70%29.71 "Hg3 mi
5:00 AM82 °FPartly cloudy.7 mph70%29.71 "Hg3 mi
4:30 AM82 °FPartly cloudy.7 mph70%29.71 "Hg3 mi
4:00 AM81 °FFog.8 mph79%29.71 "Hg3 mi
3:30 AM81 °FFog.9 mph79%29.71 "Hg3 mi
3:00 AM81 °FFog.6 mph79%29.71 "Hg3 mi
2:30 AM81 °FFog.5 mph79%29.71 "Hg3 mi
2:00 AM81 °FFog.3 mph79%29.74 "Hg3 mi
1:30 AM82 °FPartly cloudy.3 mph74%29.74 "Hg3 mi
1:00 AM82 °FPartly cloudy.3 mph74%29.74 "Hg3 mi
12:30 AM82 °FPartly cloudy.6 mph74%29.77 "Hg3 mi
12:00 AM82 °FPartly cloudy.5 mph74%29.77 "Hg3 mi
11:30 PM
Sun, Aug 28
82 °FPartly cloudy.5 mph74%29.77 "Hg3 mi
11:00 PM82 °FPartly cloudy.5 mph70%29.77 "Hg3 mi
10:30 PM84 °FPartly cloudy.8 mph62%29.77 "Hg4 mi
10:00 PM86 °FPartly cloudy.3 mph62%29.77 "Hg4 mi
9:30 PM86 °FPartly cloudy.3 mph59%29.77 "Hg4 mi
9:00 PM88 °FPartly cloudy.7 mph55%29.77 "Hg4 mi
8:30 PM88 °FPartly cloudy.7 mph55%29.74 "Hg4 mi
8:00 PM90 °FPassing clouds.13 mph52%29.71 "Hg4 mi
7:30 PM91 °FPassing clouds.9 mph46%29.68 "Hg4 mi
7:00 PM91 °FPassing clouds.5 mph49%29.68 "Hg4 mi
6:30 PM93 °FScattered clouds.7 mph47%29.65 "Hg4 mi
6:00 PM95 °FScattered clouds.8 mph44%29.65 "Hg5 mi
5:30 PM95 °FScattered clouds.9 mph41%29.65 "HgN/A
5:00 PM97 °FScattered clouds.12 mph42%29.65 "HgN/A
4:30 PM97 °FScattered clouds.9 mph42%29.65 "HgN/A
4:00 PM97 °FScattered clouds.8 mph42%29.65 "HgN/A
3:30 PM97 °FPassing clouds.9 mph39%29.65 "HgN/A
3:00 PM97 °FPassing clouds.8 mph39%29.65 "HgN/A
2:30 PM97 °FPassing clouds.8 mph39%29.68 "HgN/A
2:00 PM97 °FPassing clouds.8 mph42%29.68 "HgN/A
1:30 PM95 °FPassing clouds.8 mph44%29.68 "HgN/A
1:00 PM95 °FPassing clouds.12 mph44%29.71 "HgN/A
Weather by CustomWeather, © 2016

See weather overviewHow to use our weather pages